COSMOS 2251 DEB, 34588

Orbit data source: Space-Track

COSMOS 2251 DEB, 34588 is space debris in LEO originally from a launch on Wed, 16 Jun 1993 UTC launched from the Plesetsk Missile And Space Complex (PKMTR). The debris from Iridium 33, an American commercial communications satellite, has been tracked extensively since its accidental collision with the defunct Russian satellite Cosmos 2251 in 2009. This event, occurring at high speed in low Earth orbit (LEO), generated thousands of pieces of space debris, significantly increasing the risk of further collisions. The Iridium 33 debris cloud has impacted space traffic management and orbital debris mitigation strategies, making it a subject of ongoing study in space situational awareness.

Loading next visibility...
Identifier
34588, 1993-036WA
Orbit
LEO
Country
Flag of CISCIS
Related business
Manufacturer
Unknown
Mission
Spacecraft
Bus & Motor
Unknown
Mass
Unknown
Launch date (UTC)
1993-06-16 (33 years ago)
Launch vehicle
Unknown
Launch site
Plesetsk Missile And Space Complex (PKMTR)
Object type
Payload
Rocket body
Debris
Shape & HBR
Unknown shape, 0.2 m
Radar Cross Section
Small (<0.1 m²)

Expand to show TLE details & history
Last TLE update: 10 hours ago

TLE from 10 hours ago
0 COSMOS 2251 DEB
1 34588U 93036WA  26036.83312358  .00002818  00000-0  86084-3 0  9997
2 34588  74.0440 166.1546 0018696 213.6636 302.7331 14.42227779887440
Epoch: 2026-02-05T19:59Z
TLE epoch observation values (Epoch: 2026-02-05T19:59:41.877Z)
Latitude
22.83922°
Longitude
-96.62862°
Altitude
746.428 km
Speed
7.487 km/s
True Right ascension
22h 37m 06s
True Declination
22° 42' 59"
Sunlit
Object was in daylight at epoch
Visualization orbit readout
Latitude
Unknown
Longitude
Unknown
Altitude
Unknown
Speed
Unknown
Apparent Right ascension
Unknown
Apparent Declination
Unknown
Sunlit
N/A
Visualization observer readout
Local Sidereal Time
07:58:34
Azimuth
Unknown
Elevation
Unknown
Doppler factor
Unknown
Orbital elements
Apogee altitude
762.088 km
Perigee altitude
735.439 km
Semi-major axis
7,126.901 km
Eccentricity
0.00187
Inclination
74.044°
RAAN
166.1546°
Arg. of periapsis
213.6636°
True anomaly
302.55265°
Mean anomaly
302.7331°
Eccentric anomaly
302.6429°
Mean motion
3.60738 °/min
Orbital period
99.8 mins
BSTAR
0.00086084
Loading maneuver chart data...
Computing Atmospheric mass density...

Documentation

Showing up to 5 results
|